QPF
0.00 0.00 0.00 0.00 0.00 0.01 0.01 0.01 0.02 0.03 0.04 0.05 0.04 0.04 0.03 0.02 0.02 0.02 0.02 0.02 0.01 0.02 0.03 0.05 0.05 0.05 0.09 0.11 0.07 0.06 0.08 0.06 0.04 0.07 0.07 0.05 0.03 0.04 0.02 0.02 0.03 0.02 0.02
0.00 0.00 0.00 0.00 0.01 0.01 0.01 0.02 0.02 0.02 0.03 0.04 0.04 0.04 0.04 0.02 0.03 0.04 0.03 0.02 0.01 0.01 0.03 0.06 0.05 0.07 0.09 0.10 0.10 0.10 0.10 0.08 0.05 0.08 0.13 0.15 0.13 0.08 0.02 0.03 0.03 0.03 0.02
0.01 0.00 0.00 0.00 0.00 0.01 0.01 0.01 0.01 0.01 0.01 0.02 0.02 0.04 0.04 0.03 0.03 0.03 0.03 0.03 0.02 0.02 0.03 0.04 0.06 0.07 0.07 0.10 0.08 0.09 0.11 0.10 0.08 0.07 0.10 0.16 0.19 0.15 0.09 0.05 0.03 0.02 0.03
0.01 0.00 0.00 0.00 0.00 0.01 0.01 0.01 0.01 0.01 0.01 0.01 0.02 0.02 0.03 0.04 0.04 0.05 0.05 0.05 0.04 0.04 0.03 0.03 0.05 0.06 0.07 0.09 0.06 0.08 0.08 0.07 0.08 0.09 0.08 0.08 0.12 0.15 0.16 0.11 0.06 0.04 0.02
0.00 0.00 0.00 0.00 0.00 0.00 0.01 0.01 0.01 0.01 0.02 0.02 0.03 0.04 0.03 0.05 0.05 0.05 0.06 0.06 0.06 0.04 0.02 0.03 0.04 0.04 0.06 0.07 0.08 0.10 0.08 0.08 0.08 0.09 0.09 0.10 0.11 0.10 0.12 0.13 0.10 0.08 0.03
0.00 0.00 0.00 0.00 0.00 0.00 0.01 0.01 0.01 0.01 0.02 0.02 0.03 0.04 0.05 0.07 0.09 0.10 0.09 0.07 0.06 0.05 0.04 0.03 0.04 0.04 0.05 0.06 0.07 0.08 0.09 0.10 0.10 0.10 0.08 0.10 0.10 0.11 0.14 0.12 0.11 0.09 0.04
0.00 0.00 0.00 0.00 0.00 0.00 0.01 0.01 0.01 0.01 0.01 0.02 0.03 0.04 0.06 0.07 0.07 0.08 0.09 0.07 0.06 0.05 0.05 0.04 0.05 0.05 0.05 0.05 0.08 0.09 0.10 0.11 0.12 0.10 0.09 0.09 0.08 0.08 0.11 0.09 0.08 0.09 0.05
0.00 0.00 0.00 0.00 0.01 0.01 0.01 0.01 0.00 0.00 0.01 0.01 0.03 0.04 0.05 0.04 0.05 0.07 0.08 0.06 0.05 0.05 0.05 0.05 0.04 0.05 0.04 0.05 0.09 0.08 0.09 0.11 0.10 0.07 0.08 0.08 0.05 0.06 0.07 0.07 0.10 0.10 0.09
0.00 0.00 0.01 0.01 0.01 0.02 0.02 0.01 0.00 0.00 0.00 0.01 0.02 0.04 0.03 0.03 0.05 0.07 0.07 0.06 0.07 0.06 0.06 0.07 0.07 0.07 0.07 0.07 0.08 0.07 0.08 0.09 0.07 0.06 0.09 0.08 0.06 0.06 0.05 0.07 0.10 0.15 0.15
0.00 0.00 0.01 0.01 0.02 0.03 0.02 0.01 0.00 0.01 0.01 0.01 0.01 0.02 0.03 0.04 0.06 0.07 0.06 0.07 0.09 0.07 0.07 0.07 0.08 0.09 0.09 0.08 0.09 0.07 0.06 0.07 0.07 0.08 0.09 0.09 0.07 0.07 0.07 0.09 0.11 0.13 0.15
0.00 0.01 0.02 0.02 0.02 0.03 0.02 0.02 0.01 0.01 0.01 0.02 0.02 0.04 0.04 0.04 0.05 0.06 0.06 0.08 0.10 0.08 0.08 0.08 0.09 0.07 0.06 0.06 0.07 0.05 0.05 0.05 0.07 0.07 0.09 0.10 0.11 0.11 0.08 0.09 0.11 0.11 0.15
0.01 0.01 0.02 0.05 0.04 0.02 0.02 0.03 0.03 0.04 0.04 0.04 0.03 0.03 0.05 0.06 0.07 0.07 0.08 0.07 0.06 0.06 0.08 0.08 0.07 0.05 0.05 0.05 0.04 0.04 0.04 0.05 0.05 0.07 0.12 0.12 0.12 0.13 0.11 0.10 0.11 0.11 0.14
0.02 0.02 0.02 0.02 0.02 0.02 0.03 0.03 0.04 0.04 0.04 0.04 0.03 0.03 0.05 0.06 0.06 0.07 0.07 0.06 0.05 0.05 0.07 0.08 0.08 0.07 0.06 0.06 0.05 0.04 0.05 0.06 0.06 0.08 0.10 0.11 0.13 0.12 0.12 0.12 0.11 0.11 0.13
0.03 0.05 0.03 0.02 0.02 0.02 0.02 0.03 0.04 0.04 0.03 0.03 0.04 0.06 0.07 0.06 0.06 0.05 0.05 0.05 0.05 0.07 0.08 0.08 0.08 0.08 0.06 0.06 0.06 0.06 0.07 0.09 0.08 0.08 0.09 0.10 0.11 0.11 0.13 0.11 0.10 0.10 0.12
0.02 0.04 0.03 0.02 0.02 0.01 0.01 0.01 0.02 0.03 0.04 0.04 0.05 0.08 0.09 0.09 0.08 0.06 0.05 0.06 0.06 0.06 0.07 0.08 0.08 0.07 0.07 0.05 0.07 0.07 0.08 0.10 0.10 0.09 0.09 0.09 0.09 0.10 0.10 0.07 0.09 0.10 0.12
0.02 0.02 0.01 0.01 0.01 0.01 0.01 0.01 0.01 0.03 0.04 0.03 0.06 0.07 0.07 0.08 0.07 0.06 0.05 0.06 0.06 0.07 0.07 0.06 0.06 0.06 0.05 0.06 0.07 0.08 0.09 0.11 0.11 0.08 0.08 0.07 0.08 0.08 0.08 0.06 0.05 0.07 0.08
0.01 0.02 0.02 0.01 0.01 0.01 0.01 0.01 0.02 0.03 0.04 0.03 0.05 0.06 0.06 0.06 0.05 0.04 0.05 0.06 0.06 0.06 0.06 0.07 0.07 0.08 0.07 0.07 0.07 0.06 0.06 0.08 0.08 0.06 0.06 0.05 0.05 0.07 0.04 0.04 0.04 0.04 0.04
0.01 0.01 0.01 0.01 0.01 0.01 0.02 0.02 0.03 0.03 0.02 0.02 0.03 0.05 0.05 0.04 0.04 0.04 0.05 0.07 0.08 0.09 0.09 0.09 0.09 0.09 0.07 0.06 0.04 0.04 0.04 0.05 0.05 0.04 0.04 0.04 0.04 0.04 0.03 0.05 0.05 0.03 0.03
0.01 0.01 0.01 0.01 0.01 0.02 0.02 0.01 0.02 0.03 0.03 0.02 0.02 0.03 0.04 0.04 0.04 0.04 0.05 0.05 0.07 0.08 0.07 0.08 0.08 0.07 0.06 0.06 0.04 0.04 0.04 0.05 0.06 0.05 0.05 0.05 0.05 0.05 0.04 0.06 0.06 0.04 0.03
0.01 0.01 0.01 0.01 0.02 0.02 0.02 0.02 0.03 0.03 0.02 0.02 0.02 0.03 0.04 0.06 0.06 0.06 0.07 0.07 0.06 0.06 0.07 0.06 0.05 0.05 0.05 0.06 0.05 0.05 0.04 0.06 0.07 0.07 0.06 0.05 0.04 0.05 0.04 0.05 0.04 0.04 0.03
0.02 0.03 0.02 0.02 0.02 0.02 0.01 0.03 0.03 0.03 0.03 0.03 0.03 0.02 0.03 0.05 0.07 0.07 0.08 0.07 0.08 0.08 0.07 0.07 0.06 0.04 0.05 0.05 0.03 0.04 0.05 0.06 0.07 0.07 0.07 0.06 0.05 0.03 0.02 0.02 0.02 0.02 0.02
0.02 0.03 0.03 0.02 0.03 0.02 0.03 0.03 0.03 0.04 0.04 0.05 0.04 0.03 0.03 0.03 0.05 0.07 0.07 0.08 0.08 0.06 0.05 0.07 0.08 0.06 0.05 0.04 0.02 0.03 0.03 0.05 0.06 0.06 0.06 0.04 0.03 0.02 0.02 0.01 0.01 0.01 0.01
0.02 0.04 0.07 0.05 0.03 0.03 0.04 0.05 0.05 0.06 0.05 0.05 0.06 0.07 0.07 0.06 0.06 0.07 0.07 0.07 0.06 0.07 0.07 0.07 0.06 0.06 0.06 0.06 0.06 0.06 0.06 0.06 0.05 0.04 0.03 0.02 0.02 0.02 0.01 0.01 0.02 0.02 0.01
0.03 0.04 0.08 0.10 0.05 0.04 0.05 0.06 0.06 0.07 0.07 0.08 0.09 0.09 0.09 0.07 0.07 0.07 0.08 0.08 0.09 0.09 0.08 0.07 0.07 0.07 0.07 0.08 0.08 0.06 0.04 0.03 0.02 0.03 0.03 0.02 0.02 0.01 0.01 0.01 0.01 0.01 0.01
0.04 0.06 0.06 0.06 0.05 0.04 0.04 0.05 0.06 0.06 0.06 0.05 0.07 0.07 0.08 0.08 0.08 0.07 0.10 0.11 0.11 0.10 0.08 0.06 0.06 0.06 0.06 0.06 0.05 0.03 0.03 0.03 0.03 0.03 0.03 0.02 0.02 0.02 0.02 0.02 0.02 0.02 0.02
0.07 0.09 0.08 0.06 0.05 0.05 0.04 0.04 0.04 0.04 0.05 0.05 0.05 0.06 0.07 0.08 0.07 0.07 0.07 0.07 0.07 0.06 0.05 0.03 0.04 0.04 0.04 0.03 0.03 0.03 0.03 0.03 0.03 0.03 0.04 0.04 0.04 0.04 0.04 0.04 0.04 0.03 0.03
MSLP
1007.46 1008.10 1008.73 1009.33 1009.89 1010.39 1010.86 1011.30 1011.72 1012.11 1012.49 1012.83 1013.13 1013.41 1013.65 1013.86 1014.08 1014.29 1014.52 1014.77 1015.03 1015.32 1015.63 1015.94 1016.25 1016.56 1016.87 1017.18 1017.48 1017.77 1018.05 1018.30 1018.52 1018.69 1018.82 1018.90 1018.92 1018.92 1018.89 1018.85 1018.83 1018.83 1018.89
1006.81 1007.50 1008.19 1008.85 1009.46 1010.01 1010.53 1011.01 1011.46 1011.90 1012.31 1012.69 1013.04 1013.33 1013.58 1013.79 1013.99 1014.18 1014.38 1014.62 1014.89 1015.19 1015.53 1015.88 1016.23 1016.58 1016.92 1017.23 1017.53 1017.81 1018.07 1018.31 1018.53 1018.72 1018.87 1018.99 1019.05 1019.08 1019.06 1019.02 1018.98 1018.95 1018.94
1006.06 1006.76 1007.49 1008.19 1008.85 1009.46 1010.02 1010.54 1011.05 1011.54 1012.01 1012.44 1012.83 1013.16 1013.42 1013.64 1013.82 1013.99 1014.17 1014.39 1014.66 1014.97 1015.33 1015.71 1016.09 1016.46 1016.81 1017.13 1017.42 1017.69 1017.94 1018.17 1018.40 1018.62 1018.82 1018.99 1019.11 1019.20 1019.22 1019.21 1019.17 1019.11 1019.06
1005.18 1005.88 1006.62 1007.36 1008.06 1008.71 1009.32 1009.90 1010.46 1011.01 1011.54 1012.04 1012.48 1012.85 1013.14 1013.37 1013.54 1013.70 1013.86 1014.06 1014.31 1014.62 1014.99 1015.38 1015.79 1016.18 1016.54 1016.86 1017.16 1017.42 1017.67 1017.92 1018.17 1018.43 1018.68 1018.92 1019.12 1019.27 1019.35 1019.37 1019.34 1019.28 1019.19
1004.23 1004.90 1005.64 1006.39 1007.12 1007.81 1008.46 1009.09 1009.71 1010.33 1010.92 1011.48 1011.98 1012.40 1012.73 1012.97 1013.15 1013.29 1013.43 1013.61 1013.84 1014.14 1014.50 1014.90 1015.32 1015.73 1016.11 1016.46 1016.76 1017.05 1017.32 1017.59 1017.89 1018.19 1018.50 1018.80 1019.07 1019.28 1019.42 1019.48 1019.47 1019.40 1019.29
1003.29 1003.91 1004.63 1005.38 1006.12 1006.83 1007.52 1008.19 1008.87 1009.54 1010.19 1010.81 1011.37 1011.83 1012.20 1012.46 1012.64 1012.78 1012.91 1013.06 1013.27 1013.55 1013.90 1014.30 1014.73 1015.16 1015.57 1015.95 1016.29 1016.61 1016.93 1017.24 1017.58 1017.93 1018.29 1018.64 1018.96 1019.22 1019.40 1019.49 1019.50 1019.43 1019.32
1002.46 1003.03 1003.71 1004.43 1005.17 1005.89 1006.59 1007.29 1008.00 1008.71 1009.41 1010.08 1010.68 1011.19 1011.59 1011.87 1012.07 1012.20 1012.32 1012.46 1012.65 1012.91 1013.25 1013.65 1014.09 1014.55 1014.99 1015.41 1015.80 1016.17 1016.53 1016.89 1017.27 1017.66 1018.05 1018.44 1018.78 1019.07 1019.28 1019.40 1019.42 1019.37 1019.27
1001.87 1002.36 1002.99 1003.67 1004.38 1005.08 1005.78 1006.49 1007.20 1007.93 1008.66 1009.35 1009.98 1010.52 1010.95 1011.26 1011.47 1011.62 1011.73 1011.86 1012.04 1012.30 1012.63 1013.03 1013.48 1013.95 1014.42 1014.88 1015.32 1015.74 1016.14 1016.55 1016.96 1017.37 1017.78 1018.18 1018.54 1018.84 1019.06 1019.20 1019.25 1019.23 1019.16
1001.58 1002.00 1002.55 1003.18 1003.84 1004.50 1005.17 1005.86 1006.56 1007.28 1008.00 1008.70 1009.34 1009.90 1010.35 1010.68 1010.92 1011.08 1011.21 1011.35 1011.53 1011.78 1012.10 1012.50 1012.95 1013.43 1013.92 1014.41 1014.88 1015.33 1015.77 1016.20 1016.63 1017.05 1017.46 1017.86 1018.22 1018.52 1018.76 1018.92 1019.01 1019.04 1019.01
1001.62 1001.96 1002.43 1002.98 1003.57 1004.18 1004.80 1005.44 1006.11 1006.80 1007.50 1008.17 1008.81 1009.36 1009.82 1010.18 1010.44 1010.63 1010.79 1010.95 1011.14 1011.39 1011.71 1012.10 1012.55 1013.02 1013.51 1014.00 1014.48 1014.94 1015.39 1015.82 1016.25 1016.67 1017.07 1017.46 1017.82 1018.13 1018.39 1018.60 1018.74 1018.84 1018.88
1001.95 1002.21 1002.59 1003.04 1003.55 1004.08 1004.64 1005.23 1005.85 1006.49 1007.14 1007.79 1008.39 1008.93 1009.39 1009.76 1010.05 1010.28 1010.47 1010.66 1010.88 1011.14 1011.46 1011.83 1012.25 1012.70 1013.16 1013.63 1014.08 1014.52 1014.95 1015.38 1015.79 1016.20 1016.60 1016.99 1017.36 1017.70 1018.00 1018.27 1018.49 1018.66 1018.79
1002.46 1002.62 1002.90 1003.25 1003.67 1004.13 1004.62 1005.15 1005.72 1006.31 1006.91 1007.51 1008.07 1008.59 1009.03 1009.41 1009.72 1009.98 1010.21 1010.44 1010.68 1010.96 1011.28 1011.63 1012.01 1012.41 1012.82 1013.23 1013.64 1014.04 1014.44 1014.84 1015.24 1015.64 1016.05 1016.46 1016.87 1017.25 1017.62 1017.96 1018.27 1018.53 1018.76
1003.02 1003.07 1003.24 1003.49 1003.82 1004.21 1004.64 1005.13 1005.65 1006.19 1006.75 1007.29 1007.81 1008.28 1008.70 1009.07 1009.39 1009.67 1009.94 1010.20 1010.47 1010.76 1011.07 1011.40 1011.74 1012.08 1012.43 1012.77 1013.11 1013.47 1013.83 1014.20 1014.60 1015.02 1015.46 1015.92 1016.38 1016.84 1017.28 1017.71 1018.10 1018.46 1018.76
1003.51 1003.45 1003.50 1003.65 1003.90 1004.23 1004.63 1005.08 1005.58 1006.09 1006.60 1007.09 1007.56 1007.98 1008.36 1008.70 1009.02 1009.31 1009.59 1009.88 1010.17 1010.46 1010.76 1011.06 1011.36 1011.64 1011.92 1012.20 1012.49 1012.79 1013.13 1013.50 1013.92 1014.38 1014.87 1015.40 1015.94 1016.48 1017.01 1017.52 1018.00 1018.42 1018.77
1003.87 1003.68 1003.61 1003.67 1003.85 1004.15 1004.53 1004.97 1005.46 1005.95 1006.43 1006.88 1007.29 1007.65 1007.98 1008.28 1008.56 1008.84 1009.12 1009.41 1009.71 1010.01 1010.30 1010.58 1010.83 1011.07 1011.30 1011.53 1011.78 1012.06 1012.40 1012.79 1013.25 1013.77 1014.35 1014.96 1015.59 1016.22 1016.83 1017.41 1017.93 1018.39 1018.77
1004.07 1003.75 1003.57 1003.55 1003.68 1003.95 1004.34 1004.79 1005.29 1005.78 1006.24 1006.65 1007.01 1007.31 1007.57 1007.80 1008.03 1008.28 1008.54 1008.82 1009.11 1009.41 1009.69 1009.95 1010.18 1010.40 1010.60 1010.81 1011.05 1011.34 1011.70 1012.14 1012.67 1013.27 1013.94 1014.64 1015.35 1016.06 1016.73 1017.35 1017.89 1018.35 1018.71
1004.16 1003.72 1003.44 1003.35 1003.44 1003.71 1004.10 1004.59 1005.10 1005.61 1006.06 1006.44 1006.74 1006.97 1007.16 1007.32 1007.49 1007.68 1007.90 1008.15 1008.43 1008.72 1009.00 1009.26 1009.49 1009.70 1009.90 1010.12 1010.38 1010.71 1011.12 1011.63 1012.24 1012.93 1013.68 1014.47 1015.25 1016.01 1016.71 1017.33 1017.86 1018.28 1018.60
1004.20 1003.66 1003.30 1003.15 1003.22 1003.49 1003.91 1004.42 1004.96 1005.48 1005.93 1006.28 1006.54 1006.71 1006.82 1006.91 1007.00 1007.13 1007.31 1007.53 1007.78 1008.06 1008.34 1008.61 1008.85 1009.08 1009.31 1009.57 1009.88 1010.26 1010.74 1011.32 1012.01 1012.78 1013.60 1014.45 1015.27 1016.05 1016.74 1017.33 1017.81 1018.18 1018.43
1004.28 1003.66 1003.24 1003.05 1003.11 1003.38 1003.82 1004.35 1004.92 1005.45 1005.90 1006.24 1006.46 1006.57 1006.62 1006.64 1006.68 1006.75 1006.87 1007.06 1007.30 1007.57 1007.86 1008.14 1008.41 1008.68 1008.95 1009.25 1009.61 1010.05 1010.59 1011.24 1011.99 1012.81 1013.67 1014.54 1015.37 1016.14 1016.79 1017.33 1017.74 1018.03 1018.22
1004.45 1003.78 1003.32 1003.11 1003.16 1003.43 1003.88 1004.43 1005.01 1005.55 1006.00 1006.32 1006.52 1006.60 1006.61 1006.58 1006.56 1006.59 1006.69 1006.85 1007.08 1007.35 1007.64 1007.95 1008.25 1008.54 1008.85 1009.20 1009.60 1010.09 1010.67 1011.35 1012.13 1012.97 1013.84 1014.69 1015.50 1016.22 1016.82 1017.29 1017.63 1017.86 1018.00
1004.74 1004.05 1003.58 1003.36 1003.39 1003.65 1004.10 1004.65 1005.23 1005.77 1006.21 1006.52 1006.71 1006.78 1006.76 1006.72 1006.68 1006.69 1006.77 1006.93 1007.15 1007.43 1007.74 1008.06 1008.38 1008.71 1009.05 1009.42 1009.84 1010.34 1010.93 1011.61 1012.38 1013.19 1014.03 1014.84 1015.59 1016.25 1016.79 1017.20 1017.49 1017.68 1017.79
1005.12 1004.45 1003.98 1003.75 1003.77 1004.02 1004.44 1004.97 1005.54 1006.06 1006.50 1006.81 1006.99 1007.06 1007.06 1007.02 1006.99 1007.01 1007.10 1007.26 1007.50 1007.79 1008.11 1008.45 1008.79 1009.13 1009.48 1009.85 1010.26 1010.74 1011.30 1011.95 1012.66 1013.41 1014.18 1014.93 1015.61 1016.21 1016.69 1017.07 1017.33 1017.51 1017.63
1005.56 1004.92 1004.48 1004.25 1004.26 1004.48 1004.86 1005.36 1005.89 1006.38 1006.80 1007.11 1007.30 1007.39 1007.41 1007.41 1007.41 1007.46 1007.58 1007.77 1008.02 1008.33 1008.67 1009.02 1009.37 1009.71 1010.04 1010.39 1010.78 1011.21 1011.71 1012.27 1012.90 1013.57 1014.26 1014.93 1015.55 1016.10 1016.55 1016.90 1017.17 1017.37 1017.53
1006.00 1005.42 1005.00 1004.79 1004.78 1004.96 1005.30 1005.74 1006.22 1006.68 1007.07 1007.37 1007.57 1007.69 1007.74 1007.78 1007.83 1007.93 1008.09 1008.31 1008.60 1008.94 1009.30 1009.66 1010.00 1010.33 1010.65 1010.96 1011.29 1011.65 1012.07 1012.55 1013.08 1013.66 1014.26 1014.85 1015.42 1015.93 1016.38 1016.75 1017.05 1017.31 1017.53
1006.40 1005.89 1005.51 1005.31 1005.28 1005.42 1005.70 1006.08 1006.49 1006.89 1007.25 1007.53 1007.73 1007.87 1007.97 1008.05 1008.16 1008.30 1008.52 1008.79 1009.12 1009.48 1009.86 1010.23 1010.58 1010.90 1011.19 1011.46 1011.74 1012.03 1012.37 1012.75 1013.19 1013.68 1014.20 1014.74 1015.27 1015.77 1016.23 1016.64 1017.00 1017.32 1017.62
1006.75 1006.31 1005.97 1005.78 1005.73 1005.83 1006.05 1006.35 1006.68 1007.02 1007.32 1007.57 1007.77 1007.92 1008.04 1008.16 1008.31 1008.51 1008.77 1009.09 1009.46 1009.86 1010.27 1010.66 1011.02 1011.34 1011.62 1011.86 1012.10 1012.33 1012.60 1012.91 1013.28 1013.70 1014.16 1014.66 1015.17 1015.67 1016.16 1016.62 1017.05 1017.44 1017.80
Thickness
5835 5834 5830 5825 5819 5812 5806 5801 5796 5793 5789 5784 5780 5777 5775 5776 5776 5774 5771 5769 5767 5765 5763 5762 5761 5759 5758 5756 5756 5754 5752 5752 5754 5750 5748 5751 5754 5754 5753 5753 5752 5751 5749
5834 5832 5829 5825 5820 5813 5807 5802 5798 5794 5790 5787 5784 5781 5779 5778 5777 5775 5772 5770 5768 5766 5765 5762 5761 5760 5757 5756 5755 5754 5751 5751 5753 5748 5742 5739 5743 5750 5756 5754 5753 5752 5751
5835 5831 5828 5825 5822 5815 5810 5806 5801 5797 5793 5790 5786 5784 5780 5778 5776 5773 5771 5770 5768 5766 5765 5763 5762 5760 5758 5756 5755 5754 5751 5748 5751 5752 5745 5736 5733 5741 5749 5754 5754 5753 5752
5843 5837 5832 5827 5824 5820 5815 5810 5805 5799 5795 5793 5788 5783 5777 5774 5774 5774 5772 5771 5769 5767 5766 5764 5763 5761 5760 5758 5756 5755 5753 5750 5748 5750 5751 5748 5746 5738 5737 5746 5751 5753 5751
5849 5842 5838 5833 5829 5826 5820 5814 5807 5802 5798 5794 5790 5785 5782 5780 5779 5776 5773 5770 5769 5768 5766 5765 5763 5761 5760 5758 5757 5755 5754 5752 5749 5748 5749 5748 5747 5746 5738 5735 5742 5747 5751
5855 5848 5844 5838 5832 5829 5823 5817 5809 5803 5800 5795 5792 5787 5783 5781 5777 5774 5772 5770 5769 5768 5767 5766 5764 5761 5760 5758 5757 5755 5753 5752 5751 5750 5750 5747 5744 5743 5741 5737 5739 5741 5748
5855 5849 5843 5837 5833 5829 5825 5819 5811 5804 5801 5797 5793 5789 5785 5782 5778 5775 5772 5770 5769 5768 5767 5767 5764 5762 5760 5759 5757 5755 5753 5752 5750 5750 5749 5749 5749 5748 5746 5741 5740 5741 5746
5855 5851 5846 5841 5836 5832 5826 5821 5813 5806 5802 5798 5794 5791 5787 5784 5780 5777 5775 5772 5771 5770 5770 5767 5765 5763 5761 5760 5757 5756 5754 5753 5751 5751 5750 5749 5749 5750 5748 5744 5740 5736 5738
5853 5850 5849 5845 5839 5833 5828 5823 5816 5809 5805 5801 5796 5792 5788 5785 5782 5780 5777 5774 5773 5772 5770 5767 5765 5763 5761 5760 5758 5755 5754 5753 5752 5751 5750 5749 5749 5750 5750 5749 5745 5737 5730
5852 5851 5849 5845 5840 5835 5830 5826 5819 5812 5807 5803 5798 5794 5790 5786 5783 5780 5777 5775 5773 5771 5768 5767 5764 5762 5761 5759 5757 5755 5753 5752 5751 5750 5749 5748 5748 5748 5748 5747 5746 5744 5736
5849 5847 5845 5843 5841 5836 5831 5825 5819 5813 5808 5803 5799 5795 5791 5787 5784 5780 5778 5775 5772 5770 5768 5766 5763 5761 5759 5758 5756 5754 5753 5750 5749 5748 5747 5746 5746 5744 5744 5745 5743 5741 5737
5845 5843 5842 5838 5836 5833 5829 5823 5819 5813 5809 5804 5798 5794 5790 5787 5783 5780 5778 5775 5772 5770 5768 5765 5763 5761 5759 5757 5755 5752 5752 5749 5747 5746 5745 5744 5744 5741 5740 5739 5738 5737 5736
5836 5836 5835 5833 5831 5829 5826 5822 5818 5813 5808 5803 5797 5792 5788 5785 5782 5779 5777 5774 5772 5769 5767 5764 5761 5759 5758 5756 5754 5752 5750 5748 5746 5745 5743 5741 5740 5737 5736 5735 5734 5733 5733
5826 5825 5824 5826 5826 5824 5822 5819 5815 5812 5807 5801 5795 5790 5786 5783 5780 5778 5775 5773 5771 5768 5765 5762 5760 5758 5756 5754 5752 5750 5747 5746 5744 5743 5741 5739 5736 5734 5733 5732 5730 5729 5727
5816 5816 5816 5818 5819 5818 5817 5815 5812 5809 5805 5799 5793 5788 5785 5782 5779 5776 5773 5771 5769 5766 5763 5760 5757 5755 5753 5750 5748 5746 5745 5742 5740 5738 5737 5735 5733 5731 5729 5728 5726 5725 5722
5809 5810 5811 5811 5812 5811 5811 5810 5807 5805 5801 5795 5790 5787 5783 5779 5776 5773 5770 5768 5765 5763 5760 5757 5754 5751 5748 5745 5743 5742 5741 5738 5736 5733 5732 5731 5730 5727 5725 5723 5722 5720 5716
5802 5803 5805 5805 5806 5807 5807 5805 5803 5800 5796 5791 5787 5784 5779 5776 5773 5771 5767 5764 5760 5758 5755 5753 5750 5745 5742 5740 5739 5737 5736 5734 5731 5729 5727 5726 5725 5722 5720 5718 5716 5714 5711
5795 5797 5799 5801 5803 5805 5804 5803 5800 5795 5790 5786 5783 5780 5776 5772 5769 5766 5763 5760 5757 5753 5750 5748 5745 5741 5737 5735 5734 5732 5731 5729 5726 5724 5722 5719 5716 5715 5712 5711 5709 5707 5705
5790 5792 5795 5796 5797 5797 5799 5797 5793 5790 5785 5781 5778 5776 5772 5768 5765 5761 5758 5756 5752 5748 5745 5742 5739 5736 5732 5729 5728 5727 5726 5723 5720 5717 5715 5712 5709 5707 5706 5704 5702 5699 5698
5784 5785 5788 5789 5788 5789 5791 5788 5785 5782 5778 5777 5775 5772 5769 5765 5760 5757 5754 5751 5747 5743 5740 5736 5733 5730 5726 5723 5722 5721 5721 5717 5714 5710 5708 5705 5702 5700 5699 5697 5694 5691 5690
5773 5777 5778 5777 5778 5781 5781 5779 5776 5774 5774 5773 5770 5767 5764 5760 5757 5753 5749 5745 5741 5737 5733 5728 5725 5722 5719 5716 5714 5713 5712 5710 5706 5703 5700 5697 5694 5692 5690 5688 5686 5683 5682
5762 5766 5766 5766 5768 5771 5771 5768 5767 5768 5768 5766 5763 5760 5757 5755 5751 5745 5741 5738 5734 5729 5725 5721 5717 5714 5711 5707 5705 5704 5702 5700 5698 5695 5692 5689 5686 5683 5681 5680 5677 5676 5675
5749 5753 5754 5754 5756 5758 5759 5757 5757 5759 5758 5756 5753 5751 5748 5744 5741 5736 5732 5729 5725 5721 5717 5714 5709 5705 5702 5698 5696 5694 5693 5691 5688 5685 5682 5679 5677 5675 5673 5670 5669 5666 5664
5737 5740 5740 5739 5741 5744 5746 5747 5749 5750 5748 5744 5741 5739 5735 5730 5726 5723 5721 5717 5714 5712 5708 5704 5700 5696 5692 5688 5686 5685 5684 5681 5678 5676 5673 5671 5668 5666 5663 5661 5659 5656 5654
5727 5728 5728 5727 5729 5732 5733 5736 5738 5739 5736 5733 5730 5727 5723 5719 5712 5707 5702 5701 5696 5697 5697 5694 5690 5687 5681 5675 5674 5674 5673 5671 5668 5666 5665 5663 5660 5656 5654 5651 5649 5646 5643
5715 5716 5717 5717 5719 5721 5723 5725 5727 5727 5726 5722 5720 5717 5713 5708 5703 5697 5689 5683 5683 5682 5682 5681 5678 5673 5669 5666 5665 5663 5662 5660 5659 5657 5654 5650 5647 5644 5642 5640 5637 5635 5631